Location: Newark
(60.0000°N, 100.0000°E)
Time: 15:55:50
(UTC+00:00)

N. Korean satellite - Pass Details

Date: 28 November 2019
Orbit: 455 x 507 km, 97.2° (Epoch: 14 December)

Event Time Altitude Azimuth Distance (km) Brightness Sun altitude
Rises 11:23:03 0° 208° (SSW) 2,600 10.8 -20.2°
Reaches altitude 10° 11:25:41 10° 229° (SW) 1,724 10.1 -20.5°
Maximum altitude 11:28:14 17° 272° (W) 1,328 9.7 -20.8°
Drops below altitude 10° 11:30:47 10° 316° (NW) 1,734 9.8 -21.2°
Sets 11:33:28 0° 336° (NNW) 2,623 10.5 -21.5°
